This is the latest recevied weather packets stored in our database for station/object IU0KRR-10. If no packets are shown the sender has not sent any weather packets the latest 10 day(s).
| Time | Temp. | Humidity | Pressure | Rain* | Wind** | Luminosity | Snow |
|---|---|---|---|---|---|---|---|
| 1777953537 | 20° C | 35% | 871.6 hPa | - | - | - | - |
| 1777952637 | 20° C | 33% | 871.5 hPa | - | - | - | - |
| 1777951737 | 20.56° C | 33% | 871.6 hPa | - | - | - | - |
| 1777950837 | 21.11° C | 32% | 871.7 hPa | - | - | - | - |
| 1777949937 | 21.11° C | 32% | 871.8 hPa | - | - | - | - |
| 1777949037 | 21.11° C | 33% | 871.8 hPa | - | - | - | - |
| 1777948137 | 21.11° C | 33% | 871.9 hPa | - | - | - | - |
| 1777947237 | 20.56° C | 35% | 872.1 hPa | - | - | - | - |
| 1777946337 | 20.56° C | 35% | 872.1 hPa | - | - | - | - |
| 1777945436 | 21.11° C | 34% | 872.3 hPa | - | - | - | - |
| 1777944536 | 20.56° C | 34% | 872.3 hPa | - | - | - | - |
| 1777943636 | 20° C | 34% | 872.4 hPa | - | - | - | - |
| 1777942736 | 20.56° C | 34% | 872.6 hPa | - | - | - | - |
| 1777941836 | 21.11° C | 32% | 872.7 hPa | - | - | - | - |
| 1777940936 | 21.67° C | 31% | 872.8 hPa | - | - | - | - |
| 1777940036 | 21.67° C | 30% | 873.1 hPa | - | - | - | - |
| 1777939136 | 22.22° C | 30% | 873.3 hPa | - | - | - | - |
| 1777938236 | 22.22° C | 30% | 873.6 hPa | - | - | - | - |
| 1777937336 | 22.22° C | 30% | 873.7 hPa | - | - | - | - |
| 1777936435 | 22.22° C | 30% | 873.9 hPa | - | - | - | - |
| 1777935534 | 22.22° C | 29% | 874 hPa | - | - | - | - |
| 1777934634 | 22.22° C | 28% | 874.1 hPa | - | - | - | - |
| 1777933734 | 21.67° C | 29% | 874.2 hPa | - | - | - | - |
| 1777932834 | 22.22° C | 29% | 874.2 hPa | - | - | - | - |
| 1777931933 | 22.78° C | 30% | 874.3 hPa | - | - | - | - |
* Rain since midnight (hover to see other rain measurements)
** Current wind speed in m/s (hover to see current wind gust speed)